QPF
0.03 0.02 0.03 0.03 0.02 0.02 0.01 0.01 0.01 0.01 0.02 0.02 0.02 0.02 0.02 0.01 0.01 0.02 0.01 0.01 0.01 0.01 0.01 0.01 0.02 0.03 0.04 0.03 0.03 0.02 0.02 0.03 0.04 0.03 0.03 0.03 0.04 0.06 0.06 0.05 0.04 0.03 0.06
0.01 0.02 0.04 0.03 0.02 0.02 0.02 0.01 0.01 0.01 0.01 0.01 0.01 0.01 0.01 0.01 0.01 0.01 0.01 0.01 0.01 0.01 0.01 0.01 0.02 0.02 0.02 0.02 0.01 0.01 0.01 0.02 0.03 0.03 0.05 0.04 0.05 0.06 0.05 0.04 0.03 0.03 0.05
0.01 0.02 0.03 0.03 0.02 0.02 0.02 0.02 0.02 0.01 0.01 0.01 0.02 0.02 0.02 0.01 0.02 0.01 0.01 0.01 0.01 0.01 0.01 0.01 0.02 0.01 0.01 0.01 0.01 0.01 0.01 0.02 0.03 0.03 0.05 0.02 0.04 0.07 0.05 0.04 0.03 0.03 0.03
0.02 0.02 0.02 0.03 0.02 0.02 0.02 0.02 0.02 0.02 0.02 0.01 0.01 0.01 0.01 0.01 0.01 0.01 0.01 0.01 0.01 0.01 0.01 0.01 0.01 0.01 0.01 0.01 0.00 0.01 0.02 0.02 0.03 0.02 0.02 0.01 0.03 0.08 0.06 0.05 0.03 0.03 0.04
0.04 0.02 0.02 0.02 0.02 0.02 0.02 0.02 0.02 0.02 0.02 0.02 0.01 0.01 0.01 0.01 0.01 0.01 0.01 0.01 0.01 0.01 0.01 0.00 0.00 0.01 0.00 0.00 0.01 0.01 0.02 0.03 0.03 0.01 0.00 0.01 0.02 0.06 0.05 0.04 0.04 0.03 0.04
0.06 0.04 0.03 0.03 0.02 0.02 0.02 0.03 0.02 0.02 0.02 0.02 0.01 0.01 0.01 0.01 0.01 0.01 0.00 0.01 0.01 0.01 0.01 0.00 0.00 0.01 0.00 0.00 0.01 0.01 0.02 0.03 0.02 0.00 0.00 0.01 0.01 0.05 0.05 0.04 0.03 0.02 0.03
0.07 0.07 0.06 0.04 0.03 0.02 0.02 0.02 0.03 0.02 0.02 0.02 0.02 0.01 0.01 0.01 0.01 0.01 0.01 0.01 0.00 0.00 0.00 0.00 0.00 0.00 0.00 0.00 0.01 0.01 0.03 0.05 0.02 0.00 0.00 0.01 0.02 0.04 0.05 0.03 0.02 0.01 0.02
0.11 0.10 0.07 0.05 0.04 0.04 0.03 0.02 0.02 0.02 0.02 0.02 0.02 0.01 0.01 0.01 0.01 0.01 0.01 0.01 0.00 0.00 0.00 0.00 0.00 0.00 0.00 0.00 0.01 0.01 0.02 0.03 0.01 0.00 0.00 0.01 0.03 0.04 0.04 0.03 0.01 0.01 0.01
0.17 0.12 0.09 0.07 0.06 0.05 0.04 0.04 0.04 0.03 0.03 0.03 0.03 0.03 0.03 0.02 0.02 0.02 0.02 0.02 0.01 0.01 0.01 0.01 0.01 0.01 0.00 0.00 0.01 0.01 0.02 0.03 0.02 0.02 0.01 0.01 0.04 0.04 0.02 0.01 0.01 0.01 0.01
0.24 0.17 0.11 0.10 0.09 0.08 0.07 0.06 0.06 0.05 0.04 0.04 0.03 0.04 0.06 0.06 0.04 0.04 0.04 0.03 0.03 0.03 0.02 0.01 0.01 0.01 0.01 0.01 0.01 0.02 0.03 0.03 0.02 0.02 0.02 0.02 0.04 0.05 0.03 0.01 0.01 0.01 0.01
0.28 0.22 0.15 0.12 0.11 0.12 0.10 0.10 0.10 0.08 0.07 0.06 0.05 0.05 0.06 0.05 0.05 0.04 0.04 0.04 0.05 0.04 0.04 0.04 0.03 0.02 0.02 0.01 0.02 0.03 0.02 0.01 0.01 0.02 0.02 0.03 0.07 0.08 0.05 0.01 0.01 0.01 0.01
0.21 0.21 0.24 0.23 0.15 0.14 0.10 0.09 0.10 0.10 0.07 0.06 0.05 0.06 0.05 0.04 0.04 0.04 0.04 0.08 0.10 0.10 0.08 0.06 0.04 0.04 0.03 0.02 0.02 0.02 0.01 0.01 0.01 0.01 0.01 0.04 0.09 0.10 0.06 0.03 0.01 0.01 0.01
0.25 0.27 0.27 0.22 0.15 0.12 0.11 0.11 0.10 0.08 0.07 0.06 0.06 0.06 0.06 0.05 0.06 0.08 0.09 0.11 0.12 0.12 0.09 0.07 0.05 0.03 0.02 0.02 0.02 0.01 0.01 0.02 0.02 0.02 0.02 0.05 0.08 0.10 0.09 0.05 0.02 0.01 0.01
0.25 0.23 0.24 0.21 0.20 0.14 0.13 0.14 0.13 0.16 0.14 0.13 0.11 0.12 0.11 0.12 0.12 0.12 0.13 0.14 0.13 0.12 0.11 0.09 0.07 0.05 0.03 0.03 0.03 0.02 0.02 0.02 0.02 0.03 0.04 0.06 0.07 0.11 0.13 0.09 0.05 0.03 0.02
0.22 0.20 0.27 0.26 0.19 0.18 0.16 0.15 0.16 0.20 0.19 0.17 0.17 0.17 0.14 0.13 0.12 0.12 0.13 0.15 0.15 0.14 0.14 0.13 0.10 0.09 0.07 0.05 0.04 0.03 0.02 0.02 0.03 0.03 0.04 0.08 0.09 0.09 0.12 0.11 0.08 0.06 0.04
0.23 0.23 0.26 0.21 0.18 0.20 0.19 0.17 0.16 0.16 0.15 0.15 0.15 0.13 0.10 0.09 0.08 0.07 0.08 0.09 0.10 0.10 0.09 0.09 0.08 0.09 0.09 0.08 0.05 0.04 0.04 0.04 0.05 0.05 0.06 0.09 0.11 0.11 0.12 0.13 0.12 0.10 0.08
0.23 0.25 0.27 0.23 0.20 0.20 0.20 0.17 0.14 0.12 0.09 0.07 0.08 0.09 0.08 0.06 0.05 0.05 0.06 0.06 0.07 0.10 0.09 0.08 0.08 0.08 0.10 0.10 0.08 0.07 0.07 0.07 0.06 0.07 0.09 0.10 0.09 0.12 0.16 0.17 0.16 0.13 0.11
0.22 0.23 0.22 0.20 0.16 0.15 0.15 0.14 0.11 0.09 0.07 0.07 0.06 0.06 0.05 0.06 0.06 0.06 0.06 0.06 0.05 0.07 0.07 0.06 0.06 0.07 0.09 0.10 0.11 0.11 0.09 0.08 0.06 0.06 0.08 0.08 0.08 0.07 0.12 0.18 0.20 0.17 0.14
0.16 0.17 0.20 0.21 0.15 0.11 0.09 0.08 0.07 0.07 0.05 0.04 0.04 0.04 0.05 0.05 0.05 0.05 0.05 0.04 0.03 0.04 0.05 0.05 0.04 0.04 0.06 0.06 0.07 0.07 0.07 0.08 0.09 0.08 0.07 0.07 0.07 0.06 0.07 0.13 0.18 0.19 0.17
0.12 0.12 0.15 0.19 0.17 0.09 0.04 0.03 0.04 0.04 0.02 0.01 0.01 0.02 0.02 0.03 0.03 0.03 0.04 0.04 0.04 0.04 0.03 0.04 0.04 0.04 0.03 0.04 0.04 0.04 0.03 0.04 0.05 0.06 0.06 0.08 0.08 0.07 0.06 0.08 0.11 0.14 0.17
0.06 0.06 0.10 0.12 0.09 0.04 0.03 0.03 0.02 0.02 0.01 0.01 0.01 0.02 0.01 0.01 0.02 0.03 0.02 0.03 0.03 0.03 0.04 0.04 0.03 0.03 0.02 0.02 0.02 0.02 0.02 0.03 0.04 0.05 0.05 0.06 0.08 0.09 0.08 0.07 0.08 0.08 0.11
0.04 0.04 0.03 0.02 0.02 0.03 0.04 0.04 0.02 0.01 0.00 0.00 0.00 0.01 0.01 0.01 0.01 0.01 0.01 0.01 0.01 0.02 0.03 0.03 0.02 0.03 0.02 0.03 0.04 0.04 0.02 0.02 0.02 0.03 0.02 0.02 0.04 0.07 0.09 0.08 0.07 0.06 0.06
0.04 0.03 0.01 0.01 0.01 0.01 0.01 0.01 0.01 0.00 0.00 0.00 0.00 0.00 0.00 0.00 0.00 0.00 0.00 0.01 0.01 0.01 0.01 0.01 0.01 0.01 0.02 0.03 0.05 0.06 0.04 0.02 0.02 0.02 0.02 0.03 0.03 0.04 0.05 0.05 0.06 0.06 0.06
0.03 0.02 0.01 0.00 0.00 0.00 0.00 0.00 0.00 0.00 0.00 0.00 0.00 0.00 0.00 0.00 0.00 0.00 0.00 0.00 0.00 0.00 0.00 0.00 0.01 0.00 0.00 0.01 0.03 0.05 0.06 0.04 0.03 0.02 0.02 0.02 0.03 0.04 0.05 0.04 0.04 0.05 0.05
0.01 0.01 0.00 0.00 0.00 0.00 0.00 0.00 0.00 0.00 0.00 0.00 0.00 0.00 0.00 0.00 0.00 0.00 0.00 0.00 0.00 0.00 0.00 0.00 0.00 0.00 0.00 0.01 0.01 0.02 0.03 0.04 0.05 0.03 0.02 0.02 0.02 0.03 0.04 0.04 0.04 0.04 0.05
0.01 0.00 0.00 0.00 0.00 0.00 0.00 0.00 0.00 0.00 0.00 0.00 0.00 0.00 0.00 0.00 0.00 0.00 0.00 0.00 0.00 0.00 0.00 0.00 0.00 0.00 0.00 0.00 0.00 0.00 0.01 0.01 0.03 0.03 0.02 0.02 0.02 0.02 0.02 0.02 0.03 0.04 0.04
MSLP
1012.23 1012.02 1011.96 1012.05 1012.28 1012.57 1012.90 1013.21 1013.48 1013.69 1013.86 1014.01 1014.16 1014.34 1014.55 1014.78 1015.01 1015.23 1015.40 1015.52 1015.59 1015.61 1015.61 1015.60 1015.60 1015.62 1015.67 1015.73 1015.81 1015.90 1015.98 1016.06 1016.15 1016.25 1016.36 1016.50 1016.67 1016.85 1017.06 1017.27 1017.48 1017.68 1017.86
1012.14 1012.03 1012.05 1012.21 1012.47 1012.78 1013.10 1013.40 1013.65 1013.87 1014.05 1014.23 1014.42 1014.64 1014.88 1015.12 1015.36 1015.56 1015.70 1015.80 1015.85 1015.86 1015.86 1015.86 1015.87 1015.90 1015.94 1016.00 1016.06 1016.12 1016.18 1016.26 1016.35 1016.47 1016.61 1016.78 1016.97 1017.18 1017.39 1017.61 1017.82 1018.02 1018.21
1012.01 1012.00 1012.12 1012.35 1012.66 1013.00 1013.33 1013.63 1013.89 1014.11 1014.31 1014.51 1014.74 1014.98 1015.23 1015.48 1015.69 1015.86 1015.97 1016.03 1016.06 1016.06 1016.06 1016.08 1016.11 1016.15 1016.20 1016.25 1016.30 1016.35 1016.42 1016.50 1016.61 1016.76 1016.93 1017.13 1017.34 1017.56 1017.77 1017.98 1018.19 1018.38 1018.58
1011.90 1011.99 1012.21 1012.52 1012.89 1013.28 1013.63 1013.94 1014.19 1014.42 1014.63 1014.84 1015.08 1015.33 1015.58 1015.81 1015.99 1016.12 1016.19 1016.21 1016.21 1016.21 1016.23 1016.26 1016.31 1016.37 1016.44 1016.50 1016.55 1016.61 1016.68 1016.78 1016.92 1017.09 1017.30 1017.52 1017.75 1017.97 1018.17 1018.37 1018.56 1018.75 1018.95
1011.86 1012.05 1012.36 1012.76 1013.19 1013.62 1013.99 1014.31 1014.56 1014.77 1014.97 1015.18 1015.41 1015.65 1015.88 1016.08 1016.22 1016.31 1016.34 1016.34 1016.33 1016.34 1016.37 1016.43 1016.51 1016.60 1016.68 1016.75 1016.81 1016.87 1016.96 1017.07 1017.24 1017.44 1017.67 1017.92 1018.15 1018.37 1018.56 1018.73 1018.90 1019.09 1019.29
1011.92 1012.19 1012.58 1013.05 1013.54 1014.00 1014.39 1014.70 1014.93 1015.12 1015.30 1015.48 1015.69 1015.90 1016.11 1016.27 1016.38 1016.44 1016.45 1016.44 1016.44 1016.46 1016.52 1016.61 1016.73 1016.84 1016.93 1017.01 1017.07 1017.13 1017.22 1017.35 1017.53 1017.76 1018.01 1018.27 1018.51 1018.71 1018.89 1019.05 1019.20 1019.37 1019.58
1012.10 1012.41 1012.85 1013.37 1013.90 1014.38 1014.77 1015.06 1015.26 1015.41 1015.55 1015.71 1015.89 1016.07 1016.25 1016.40 1016.49 1016.53 1016.54 1016.53 1016.55 1016.60 1016.70 1016.82 1016.96 1017.09 1017.20 1017.27 1017.32 1017.37 1017.45 1017.59 1017.77 1018.01 1018.28 1018.54 1018.78 1018.98 1019.14 1019.28 1019.43 1019.60 1019.81
1012.37 1012.69 1013.15 1013.69 1014.24 1014.71 1015.08 1015.34 1015.51 1015.62 1015.73 1015.85 1016.01 1016.18 1016.34 1016.48 1016.57 1016.61 1016.63 1016.65 1016.69 1016.77 1016.90 1017.05 1017.22 1017.36 1017.46 1017.52 1017.55 1017.58 1017.64 1017.75 1017.93 1018.17 1018.44 1018.71 1018.96 1019.15 1019.31 1019.44 1019.58 1019.75 1019.97
1012.70 1013.00 1013.46 1013.99 1014.52 1014.97 1015.31 1015.53 1015.66 1015.75 1015.83 1015.94 1016.08 1016.25 1016.42 1016.57 1016.66 1016.72 1016.75 1016.79 1016.85 1016.96 1017.11 1017.29 1017.47 1017.61 1017.70 1017.74 1017.74 1017.74 1017.77 1017.85 1018.02 1018.24 1018.51 1018.78 1019.03 1019.24 1019.40 1019.53 1019.67 1019.85 1020.08
1013.07 1013.34 1013.76 1014.26 1014.75 1015.16 1015.46 1015.65 1015.75 1015.81 1015.89 1016.00 1016.16 1016.34 1016.53 1016.69 1016.81 1016.88 1016.92 1016.97 1017.04 1017.16 1017.33 1017.52 1017.70 1017.83 1017.91 1017.92 1017.90 1017.86 1017.85 1017.90 1018.04 1018.25 1018.50 1018.78 1019.03 1019.25 1019.43 1019.58 1019.73 1019.91 1020.15
1013.46 1013.68 1014.06 1014.51 1014.95 1015.32 1015.57 1015.72 1015.81 1015.87 1015.95 1016.09 1016.27 1016.49 1016.70 1016.88 1017.01 1017.09 1017.13 1017.17 1017.25 1017.36 1017.52 1017.71 1017.89 1018.02 1018.08 1018.08 1018.02 1017.95 1017.90 1017.92 1018.02 1018.20 1018.45 1018.72 1018.99 1019.22 1019.42 1019.59 1019.76 1019.95 1020.20
1013.85 1014.04 1014.38 1014.78 1015.16 1015.47 1015.68 1015.81 1015.88 1015.95 1016.05 1016.22 1016.44 1016.69 1016.94 1017.13 1017.27 1017.34 1017.37 1017.39 1017.45 1017.54 1017.69 1017.86 1018.03 1018.16 1018.22 1018.20 1018.13 1018.03 1017.95 1017.94 1018.00 1018.15 1018.38 1018.64 1018.91 1019.16 1019.38 1019.58 1019.77 1019.98 1020.23
1014.25 1014.43 1014.73 1015.08 1015.40 1015.66 1015.82 1015.92 1015.99 1016.07 1016.20 1016.41 1016.67 1016.95 1017.22 1017.42 1017.56 1017.62 1017.62 1017.62 1017.64 1017.71 1017.83 1017.99 1018.15 1018.27 1018.33 1018.32 1018.24 1018.13 1018.02 1017.97 1017.99 1018.11 1018.30 1018.55 1018.81 1019.07 1019.31 1019.53 1019.75 1019.97 1020.23
1014.66 1014.83 1015.11 1015.41 1015.68 1015.88 1016.00 1016.08 1016.14 1016.24 1016.40 1016.63 1016.92 1017.22 1017.50 1017.72 1017.84 1017.89 1017.87 1017.84 1017.83 1017.87 1017.97 1018.11 1018.26 1018.39 1018.45 1018.44 1018.36 1018.24 1018.12 1018.03 1018.02 1018.09 1018.24 1018.45 1018.70 1018.96 1019.20 1019.44 1019.67 1019.91 1020.17
1015.06 1015.25 1015.50 1015.76 1015.97 1016.13 1016.22 1016.27 1016.33 1016.43 1016.61 1016.86 1017.16 1017.48 1017.76 1017.97 1018.09 1018.13 1018.10 1018.05 1018.02 1018.04 1018.12 1018.25 1018.40 1018.53 1018.60 1018.60 1018.52 1018.39 1018.25 1018.13 1018.07 1018.08 1018.18 1018.34 1018.56 1018.79 1019.04 1019.28 1019.52 1019.77 1020.04
1015.45 1015.65 1015.88 1016.10 1016.27 1016.38 1016.44 1016.48 1016.53 1016.64 1016.81 1017.07 1017.37 1017.68 1017.96 1018.17 1018.29 1018.33 1018.30 1018.26 1018.23 1018.25 1018.32 1018.45 1018.59 1018.71 1018.79 1018.79 1018.71 1018.58 1018.41 1018.25 1018.14 1018.09 1018.13 1018.23 1018.39 1018.59 1018.81 1019.04 1019.27 1019.53 1019.79
1015.83 1016.02 1016.22 1016.39 1016.52 1016.60 1016.65 1016.68 1016.74 1016.84 1017.02 1017.25 1017.54 1017.83 1018.10 1018.30 1018.43 1018.49 1018.49 1018.47 1018.47 1018.50 1018.58 1018.70 1018.84 1018.95 1019.02 1019.01 1018.93 1018.78 1018.59 1018.40 1018.23 1018.12 1018.08 1018.12 1018.21 1018.35 1018.53 1018.73 1018.95 1019.19 1019.46
1016.18 1016.34 1016.49 1016.62 1016.72 1016.79 1016.84 1016.89 1016.95 1017.06 1017.23 1017.44 1017.70 1017.96 1018.20 1018.40 1018.55 1018.63 1018.68 1018.71 1018.74 1018.81 1018.90 1019.02 1019.14 1019.24 1019.28 1019.26 1019.16 1018.99 1018.78 1018.56 1018.35 1018.18 1018.07 1018.03 1018.05 1018.12 1018.24 1018.40 1018.59 1018.81 1019.05
1016.49 1016.59 1016.69 1016.79 1016.88 1016.96 1017.03 1017.11 1017.21 1017.33 1017.48 1017.67 1017.89 1018.11 1018.32 1018.51 1018.66 1018.79 1018.88 1018.96 1019.05 1019.15 1019.25 1019.37 1019.47 1019.54 1019.56 1019.51 1019.39 1019.21 1018.98 1018.74 1018.50 1018.28 1018.12 1018.00 1017.95 1017.94 1018.00 1018.09 1018.24 1018.42 1018.64
1016.76 1016.79 1016.84 1016.91 1017.01 1017.12 1017.25 1017.38 1017.52 1017.67 1017.82 1017.98 1018.15 1018.32 1018.49 1018.65 1018.81 1018.96 1019.10 1019.23 1019.37 1019.50 1019.61 1019.72 1019.80 1019.83 1019.81 1019.74 1019.61 1019.42 1019.19 1018.95 1018.69 1018.45 1018.24 1018.07 1017.94 1017.87 1017.84 1017.87 1017.95 1018.08 1018.25
1016.99 1016.96 1016.96 1017.02 1017.14 1017.31 1017.51 1017.72 1017.92 1018.10 1018.26 1018.39 1018.50 1018.61 1018.73 1018.85 1019.00 1019.16 1019.33 1019.50 1019.67 1019.82 1019.94 1020.03 1020.08 1020.08 1020.03 1019.94 1019.80 1019.62 1019.41 1019.18 1018.94 1018.70 1018.47 1018.25 1018.07 1017.92 1017.82 1017.77 1017.77 1017.83 1017.94
1017.17 1017.09 1017.07 1017.14 1017.30 1017.53 1017.82 1018.12 1018.39 1018.62 1018.78 1018.88 1018.95 1018.99 1019.04 1019.11 1019.23 1019.38 1019.56 1019.75 1019.93 1020.09 1020.21 1020.28 1020.30 1020.27 1020.20 1020.09 1019.96 1019.80 1019.63 1019.44 1019.24 1019.02 1018.78 1018.55 1018.32 1018.11 1017.93 1017.80 1017.72 1017.70 1017.74
1017.31 1017.21 1017.19 1017.28 1017.49 1017.80 1018.17 1018.56 1018.90 1019.17 1019.34 1019.42 1019.43 1019.41 1019.39 1019.40 1019.47 1019.59 1019.76 1019.95 1020.13 1020.28 1020.39 1020.44 1020.43 1020.38 1020.29 1020.19 1020.08 1019.96 1019.84 1019.71 1019.56 1019.38 1019.17 1018.93 1018.67 1018.41 1018.17 1017.96 1017.79 1017.69 1017.64
1017.41 1017.32 1017.32 1017.45 1017.71 1018.08 1018.53 1018.98 1019.38 1019.68 1019.86 1019.92 1019.89 1019.81 1019.72 1019.67 1019.69 1019.77 1019.91 1020.08 1020.25 1020.38 1020.47 1020.50 1020.48 1020.41 1020.33 1020.24 1020.16 1020.09 1020.03 1019.96 1019.87 1019.74 1019.56 1019.33 1019.06 1018.77 1018.47 1018.19 1017.95 1017.76 1017.63
1017.46 1017.42 1017.46 1017.62 1017.93 1018.35 1018.84 1019.33 1019.77 1020.09 1020.28 1020.32 1020.25 1020.12 1019.99 1019.89 1019.85 1019.89 1020.00 1020.14 1020.29 1020.40 1020.47 1020.48 1020.45 1020.38 1020.30 1020.24 1020.19 1020.17 1020.17 1020.16 1020.12 1020.04 1019.89 1019.68 1019.41 1019.11 1018.78 1018.45 1018.15 1017.88 1017.68
1017.48 1017.51 1017.60 1017.80 1018.12 1018.56 1019.07 1019.58 1020.02 1020.35 1020.53 1020.56 1020.47 1020.32 1020.15 1020.02 1019.95 1019.95 1020.03 1020.14 1020.26 1020.36 1020.41 1020.41 1020.37 1020.30 1020.24 1020.19 1020.18 1020.20 1020.23 1020.27 1020.28 1020.23 1020.12 1019.93 1019.67 1019.36 1019.02 1018.67 1018.32 1018.01 1017.74
Thickness
5783 5784 5783 5781 5779 5778 5776 5775 5774 5773 5772 5771 5769 5768 5767 5766 5764 5763 5763 5762 5762 5761 5761 5760 5759 5759 5758 5758 5757 5756 5755 5754 5753 5752 5751 5749 5748 5747 5746 5745 5743 5742 5740
5786 5783 5781 5779 5777 5775 5774 5772 5771 5770 5769 5768 5767 5766 5765 5764 5762 5762 5761 5760 5760 5760 5759 5758 5757 5757 5756 5756 5755 5754 5754 5752 5751 5750 5749 5748 5746 5746 5745 5743 5742 5740 5739
5784 5781 5779 5777 5774 5772 5770 5769 5768 5767 5766 5765 5764 5763 5762 5761 5760 5760 5759 5758 5758 5758 5757 5757 5756 5755 5755 5754 5753 5752 5752 5751 5750 5748 5747 5746 5745 5744 5743 5742 5740 5739 5738
5782 5779 5776 5774 5771 5769 5767 5766 5765 5764 5763 5762 5761 5760 5759 5758 5758 5757 5757 5756 5756 5756 5755 5755 5754 5753 5753 5752 5751 5750 5749 5749 5748 5746 5745 5744 5743 5742 5742 5740 5739 5737 5736
5778 5776 5774 5772 5769 5766 5764 5762 5761 5760 5759 5758 5757 5757 5756 5756 5755 5754 5754 5754 5753 5753 5753 5752 5752 5751 5750 5750 5749 5748 5748 5747 5746 5745 5744 5743 5742 5741 5740 5739 5737 5736 5735
5773 5771 5770 5768 5766 5763 5761 5759 5758 5757 5756 5755 5754 5753 5753 5753 5752 5751 5751 5751 5751 5751 5751 5750 5749 5748 5748 5747 5747 5746 5746 5745 5744 5743 5742 5741 5740 5739 5738 5737 5736 5735 5733
5768 5767 5766 5764 5762 5760 5758 5756 5755 5754 5753 5752 5751 5750 5750 5749 5748 5748 5747 5747 5747 5747 5747 5747 5746 5746 5745 5745 5744 5744 5744 5744 5743 5741 5740 5740 5739 5738 5737 5736 5735 5733 5732
5764 5763 5761 5759 5758 5757 5755 5753 5752 5751 5750 5748 5747 5747 5746 5745 5744 5744 5744 5744 5743 5743 5744 5744 5744 5743 5742 5742 5742 5742 5742 5742 5741 5740 5739 5738 5737 5737 5736 5735 5733 5732 5731
5761 5758 5757 5755 5754 5754 5752 5750 5749 5747 5746 5745 5744 5744 5743 5742 5741 5740 5740 5740 5740 5740 5740 5740 5740 5740 5740 5739 5739 5739 5740 5740 5739 5738 5737 5736 5736 5735 5734 5734 5732 5731 5730
5755 5753 5752 5751 5750 5750 5748 5747 5745 5744 5743 5742 5741 5741 5739 5738 5738 5737 5736 5736 5736 5736 5736 5737 5737 5737 5737 5737 5737 5737 5737 5737 5737 5736 5736 5735 5735 5734 5733 5732 5731 5730 5729
5748 5748 5748 5747 5746 5745 5744 5742 5741 5740 5740 5739 5738 5738 5736 5735 5734 5733 5733 5732 5733 5732 5733 5733 5733 5733 5733 5734 5734 5734 5734 5734 5734 5734 5734 5734 5733 5733 5732 5731 5730 5729 5728
5740 5742 5743 5742 5741 5740 5740 5738 5737 5736 5736 5735 5734 5733 5733 5731 5731 5730 5729 5729 5729 5729 5729 5729 5729 5730 5730 5730 5731 5731 5731 5731 5732 5732 5732 5732 5731 5731 5730 5729 5729 5728 5727
5735 5737 5738 5737 5737 5736 5735 5734 5733 5732 5731 5730 5729 5729 5728 5728 5727 5726 5725 5725 5725 5725 5725 5725 5726 5726 5726 5726 5727 5728 5728 5728 5729 5730 5731 5730 5730 5729 5728 5728 5727 5726 5725
5730 5731 5733 5733 5733 5732 5731 5730 5729 5727 5726 5725 5725 5724 5724 5723 5723 5722 5722 5721 5721 5721 5721 5721 5721 5722 5722 5723 5723 5724 5725 5726 5727 5727 5728 5729 5728 5728 5727 5726 5726 5725 5724
5726 5727 5727 5728 5728 5727 5726 5725 5724 5722 5721 5721 5720 5720 5720 5719 5719 5718 5717 5717 5717 5718 5717 5717 5717 5717 5719 5720 5720 5721 5722 5723 5724 5725 5726 5726 5727 5727 5726 5725 5724 5723 5723
5721 5722 5723 5723 5722 5722 5721 5720 5720 5718 5717 5717 5716 5716 5715 5714 5714 5714 5714 5713 5713 5713 5713 5713 5713 5714 5715 5716 5717 5718 5719 5720 5721 5722 5723 5724 5724 5725 5725 5724 5723 5722 5721
5716 5718 5718 5718 5718 5718 5717 5716 5715 5714 5714 5713 5712 5711 5710 5710 5709 5709 5709 5709 5708 5709 5709 5709 5709 5709 5710 5712 5713 5714 5715 5717 5718 5719 5720 5721 5722 5722 5722 5722 5721 5720 5719
5713 5713 5714 5716 5714 5713 5712 5712 5710 5709 5709 5708 5707 5706 5706 5705 5705 5704 5704 5703 5703 5704 5704 5704 5705 5704 5705 5706 5707 5709 5710 5712 5714 5715 5717 5718 5719 5719 5720 5719 5719 5718 5718
5710 5709 5709 5710 5709 5708 5707 5707 5705 5704 5704 5703 5702 5702 5701 5700 5700 5699 5699 5698 5699 5699 5699 5699 5699 5699 5699 5700 5702 5704 5705 5707 5709 5711 5712 5714 5716 5716 5716 5717 5717 5716 5716
5706 5706 5706 5705 5705 5705 5704 5702 5700 5699 5698 5698 5697 5696 5696 5695 5694 5694 5694 5693 5693 5693 5693 5693 5693 5694 5694 5695 5697 5699 5701 5703 5705 5706 5708 5710 5711 5713 5713 5714 5714 5715 5715
5704 5703 5702 5701 5700 5700 5699 5697 5694 5692 5692 5692 5692 5691 5691 5690 5689 5689 5688 5688 5688 5687 5687 5688 5688 5688 5688 5689 5689 5690 5694 5697 5699 5700 5703 5705 5707 5708 5709 5710 5711 5712 5713
5702 5701 5699 5698 5697 5696 5695 5693 5691 5689 5687 5686 5686 5686 5685 5685 5684 5684 5683 5682 5682 5681 5681 5682 5682 5681 5681 5682 5682 5681 5681 5685 5690 5694 5697 5699 5701 5702 5704 5705 5707 5708 5709
5700 5698 5698 5696 5694 5693 5692 5690 5688 5686 5683 5681 5680 5679 5679 5679 5679 5678 5677 5677 5676 5676 5675 5675 5675 5675 5674 5675 5676 5675 5673 5673 5678 5684 5688 5691 5694 5696 5698 5700 5702 5703 5705
5699 5697 5695 5693 5691 5689 5689 5687 5685 5681 5677 5675 5674 5674 5674 5674 5674 5673 5672 5671 5670 5670 5669 5669 5669 5669 5668 5667 5668 5669 5669 5670 5669 5671 5677 5682 5685 5688 5691 5693 5696 5698 5700
5699 5696 5693 5690 5688 5687 5686 5684 5681 5677 5675 5672 5671 5670 5669 5669 5668 5667 5667 5665 5665 5664 5663 5663 5663 5662 5662 5662 5661 5662 5662 5663 5663 5664 5665 5670 5675 5680 5683 5686 5688 5691 5694
5699 5695 5692 5689 5686 5684 5683 5681 5678 5675 5672 5670 5668 5666 5664 5663 5663 5662 5661 5660 5659 5658 5658 5657 5657 5656 5656 5655 5655 5655 5655 5655 5656 5656 5657 5659 5663 5670 5674 5678 5681 5684 5687